Location: Dumbr?vi?a
(45.8833°N, 22.7000°E)
Time: 20:56:23
(UTC+00:00)

SPOT 3 Rocket - Pass Details

Date: 03 March 2021
Orbit: 778 x 795 km, 98.7° (Epoch: 13 April)

Event Time Altitude Azimuth Distance (km) Brightness Sun altitude
Exits shadow 18:38:02 49° 44° (NE) 1,015 3.9 -24.8°
Drops below altitude 10° 18:42:28 10° 355° (N) 2,373 6.3 -25.5°
Sets 18:44:51 0° 350° (N) 3,308 7.2 -25.9°
